GFSGBSN_925_spd_000.txt.gz
Wind_Speed
9 10 12 13 13 14 12 10 6 4 4 4 3 3 2 4 6 8 9 7 4 2 1 3 6 10 7 5 0 7 15 18 17 19 13 6 8 4 5 2 3 3 2 3 4 5 4
9 11 12 13 13 13 13 12 8 6 6 5 4 4 6 8 9 8 7 6 4 3 2 3 6 8 4 3 5 7 13 14 15 17 13 11 3 5 2 3 3 1 2 4 7 5 4
9 11 12 12 13 13 14 12 8 7 7 6 6 6 7 8 8 8 7 8 7 5 4 3 5 7 2 4 6 11 6 5 9 14 5 8 7 7 3 3 2 2 3 6 7 3 4
10 12 12 13 14 15 16 12 8 8 8 7 7 7 8 8 8 8 9 9 6 4 3 3 6 4 4 3 5 8 12 3 9 14 13 9 7 3 0 2 6 4 3 4 6 7 4
10 11 12 14 16 16 18 13 10 9 9 9 9 9 9 8 8 8 8 6 4 3 4 6 3 1 5 2 3 6 10 8 16 14 14 12 3 0 6 4 5 6 4 3 8 5 3
9 11 12 14 17 18 20 16 12 10 9 9 9 9 9 9 9 8 7 4 5 6 5 2 1 3 4 1 3 9 12 11 4 7 9 2 5 4 5 6 0 4 5 5 2 6 5
9 11 13 15 17 20 21 19 12 11 8 8 10 10 10 9 9 8 6 2 6 4 2 3 2 4 2 7 1 6 15 10 4 2 3 4 6 2 4 2 3 1 2 3 4 3 7
8 10 12 14 17 19 21 22 14 11 9 7 8 8 8 8 8 7 6 5 3 1 3 3 3 3 4 2 2 7 11 4 4 2 5 7 3 2 4 5 3 6 3 4 6 6 3
8 10 13 14 15 18 20 22 17 11 11 6 5 6 6 5 5 5 9 4 3 3 2 4 1 1 5 2 2 5 3 3 1 5 4 5 3 2 5 6 7 3 2 3 6 7 3
6 9 12 13 14 16 19 22 20 10 10 7 3 4 4 3 3 3 3 2 3 1 4 3 3 3 3 2 2 4 2 2 5 2 2 2 3 4 6 3 2 4 3 4 6 4 2
4 7 10 13 13 15 18 21 22 10 9 8 4 4 5 3 2 3 1 3 4 2 5 3 1 1 4 3 3 5 5 3 2 4 5 4 2 4 4 3 3 7 7 8 4 4 3
2 3 7 10 13 14 16 20 22 11 7 9 6 4 6 4 2 0 3 4 1 6 1 2 1 1 1 5 5 4 7 6 3 4 3 2 2 3 1 4 2 6 6 5 4 3 3
2 2 5 9 12 13 15 18 21 12 4 6 6 5 4 3 2 1 2 3 4 5 2 2 1 2 3 4 5 5 5 11 5 6 7 6 5 4 2 5 7 8 6 4 5 5 4
3 1 4 7 10 13 15 17 20 16 4 3 5 6 8 3 1 1 1 5 6 4 3 1 1 2 2 2 3 5 3 5 7 6 3 5 6 7 6 2 2 4 4 4 1 0 5
3 1 3 5 9 12 14 17 20 19 5 3 1 2 3 4 2 1 5 5 5 4 3 4 4 3 3 5 3 5 4 3 6 7 4 5 4 5 4 4 2 4 4 1 5 2 3
4 2 1 3 7 10 13 16 19 21 6 1 1 1 5 4 3 3 5 3 2 2 2 4 3 4 3 6 4 3 4 5 3 6 2 3 4 2 6 4 4 3 1 5 4 2 3
7 5 2 1 4 8 11 15 18 21 6 4 2 3 7 5 1 5 4 2 3 1 3 4 4 4 4 3 4 3 3 3 3 5 6 2 3 7 4 3 2 5 4 4 1 4 3
8 6 3 0 3 5 9 13 16 19 12 4 3 3 7 7 4 1 2 2 1 3 5 4 5 4 4 4 4 3 2 3 3 1 2 3 4 3 5 8 2 2 3 5 3 5 3
9 8 5 3 1 3 6 9 13 17 20 3 3 1 5 4 3 2 2 4 4 4 5 4 3 3 3 3 3 4 2 3 3 2 3 1 2 3 7 6 8 4 7 4 3 2 6
10 9 7 4 1 2 5 7 9 12 15 3 3 3 4 4 1 6 4 2 3 4 4 4 2 4 5 4 5 2 6 4 2 1 5 6 3 6 5 5 3 9 15 11 4 2 5
9 9 9 6 4 1 3 6 8 10 12 2 3 2 4 2 5 5 4 1 4 2 2 3 5 5 3 2 4 3 3 5 5 2 1 3 5 4 7 7 5 15 17 16 9 14 5
9 9 8 6 3 1 2 5 7 9 6 5 3 3 4 1 2 5 5 3 2 4 3 3 5 3 7 3 3 2 1 0 5 3 2 3 4 4 10 6 8 17 14 12 13 13 9
11 9 8 7 4 2 2 5 7 9 4 5 3 3 4 5 3 4 2 2 2 5 2 5 5 3 4 1 4 5 5 5 7 6 4 2 3 2 5 4 4 10 8 6 5 7 7
14 11 9 7 6 3 2 3 5 8 10 7 5 4 4 2 3 3 2 3 4 3 4 2 4 5 5 2 3 5 5 5 4 8 7 5 3 2 3 1 4 9 6 7 6 7 6
15 13 11 9 7 4 2 3 4 5 7 9 5 3 3 1 2 4 1 1 3 3 1 2 1 4 8 7 4 6 5 7 5 5 2 4 5 1 1 3 6 10 10 2 2 8 5
17 15 13 11 9 6 3 2 2 3 4 8 10 5 5 5 4 1 2 2 2 1 5 2 3 6 7 4 4 2 2 4 5 5 5 6 5 3 2 3 6 8 5 4 2 6 7
21 18 16 14 12 9 5 2 1 2 4 5 5 5 4 3 3 2 3 4 5 2 3 3 3 2 3 3 3 4 4 2 3 4 3 3 2 3 2 6 8 10 7 1 4 7 5
24 22 19 18 16 13 10 6 4 2 2 4 4 4 3 3 4 1 1 3 1 2 4 3 4 4 3 3 3 4 4 5 1 4 5 5 3 5 2 3 8 1 4 3 7 4 11
25 23 21 20 18 16 14 11 7 5 4 3 3 4 3 3 3 3 6 6 5 7 5 1 4 4 5 3 2 2 3 2 4 5 2 3 7 5 8 7 4 4 10 6 7 15 8

GFSGBSN_925_spd_003.txt.gz
Wind_Speed
7 9 10 9 9 10 10 7 4 3 3 2 2 2 4 5 6 8 8 6 3 3 2 4 7 12 6 5 1 12 17 14 13 15 17 5 9 3 4 3 3 3 2 2 1 2 1
8 9 9 10 10 10 9 5 1 1 1 0 2 5 6 8 9 9 7 5 4 3 6 6 9 10 2 5 8 14 14 13 16 20 17 11 3 1 3 2 3 1 2 5 3 3 2
8 9 11 12 12 12 10 5 3 4 4 4 5 7 8 9 10 9 8 7 6 7 7 8 8 9 3 3 7 12 14 6 15 16 6 8 2 6 1 3 3 3 5 6 3 3 4
8 9 11 13 14 15 11 7 7 7 7 7 9 9 10 10 10 9 8 8 9 9 9 6 8 5 2 3 7 9 13 9 13 14 10 8 9 3 3 2 7 5 5 6 6 1 3
7 9 11 13 15 16 13 9 8 9 9 9 9 10 10 11 10 9 9 9 10 8 4 5 3 3 3 4 4 11 13 10 16 8 13 5 4 3 6 4 5 7 1 3 5 5 3
7 9 11 13 15 18 16 10 9 9 8 8 8 9 11 11 9 8 8 8 8 4 4 3 3 4 6 4 5 10 14 7 3 7 7 8 6 4 5 6 1 3 3 4 4 5 7
7 8 10 12 15 18 19 11 10 8 7 7 8 11 11 10 9 7 5 2 5 5 7 1 3 4 3 6 3 8 12 7 4 7 4 5 6 2 3 1 3 1 2 2 4 3 7
6 8 9 11 14 17 20 14 9 8 6 6 8 9 10 10 10 9 10 7 3 1 3 4 2 2 1 2 5 7 12 5 5 3 3 6 2 1 4 5 3 2 2 4 5 5 3
4 7 9 11 13 16 19 18 8 8 6 5 6 8 8 7 8 13 13 7 3 2 4 5 2 1 3 3 2 5 4 1 4 4 4 5 1 4 4 5 6 4 2 3 5 7 1
3 6 9 10 12 15 18 20 10 7 6 4 5 6 6 4 5 4 4 3 3 1 5 6 6 4 4 1 5 3 5 2 6 2 2 2 3 3 6 3 2 4 2 2 6 4 2
2 5 8 11 12 14 17 19 12 7 7 5 4 5 5 3 7 3 1 2 3 2 5 4 3 2 2 4 2 9 8 3 3 3 5 1 3 6 6 4 2 7 7 4 2 3 2
3 3 6 10 12 13 15 18 16 6 7 6 5 5 7 5 4 2 1 3 1 6 1 2 2 3 4 6 5 4 8 7 3 5 6 4 2 3 2 3 4 8 4 6 4 2 2
4 3 5 8 11 13 15 17 18 8 4 6 6 6 5 3 1 1 1 3 5 6 2 2 1 3 3 5 6 5 6 11 5 5 6 7 4 5 4 5 6 8 6 3 5 5 4
4 3 3 6 9 12 14 16 19 10 4 6 6 7 7 3 1 1 2 5 6 3 2 3 3 3 4 5 5 6 3 5 7 5 3 4 5 5 6 1 3 3 3 4 3 1 5
5 4 3 4 7 10 12 15 19 10 3 4 4 5 4 5 2 1 5 5 6 6 2 2 3 4 5 5 3 4 4 3 3 5 4 4 4 4 1 3 1 4 4 2 6 2 3
6 5 4 4 6 9 11 14 18 11 5 3 2 3 6 5 3 3 5 3 1 1 1 2 3 1 2 6 4 4 4 3 3 6 1 3 4 2 6 3 5 6 2 4 4 2 3
8 6 4 3 5 8 10 12 16 16 5 3 3 4 6 6 2 5 4 4 2 4 2 3 2 3 3 2 3 2 0 2 2 3 6 2 2 6 3 4 1 5 4 5 3 3 3
9 8 5 3 4 7 10 12 15 18 5 3 4 3 8 4 4 1 2 2 2 5 7 5 4 3 3 3 4 3 2 2 1 1 2 2 3 3 3 7 4 4 6 4 3 5 3
9 8 6 4 3 5 8 11 13 16 16 3 3 1 4 3 3 2 1 4 3 4 5 3 3 4 4 2 3 2 2 4 5 3 1 2 2 3 7 6 3 3 3 3 3 3 6
11 10 8 5 4 3 6 9 10 13 14 3 3 3 4 4 0 6 4 2 3 3 4 5 4 5 4 5 6 2 5 5 7 3 6 5 2 5 5 5 4 7 5 3 5 3 4
11 10 10 7 4 3 4 7 9 11 9 2 3 1 3 1 4 4 4 2 3 2 3 7 5 4 3 3 3 2 2 4 4 3 3 3 2 3 5 7 5 13 12 16 7 10 6
12 10 9 7 4 3 4 6 7 9 5 5 4 4 3 2 2 3 4 1 4 2 3 2 6 1 4 4 4 2 1 1 5 3 3 2 3 3 5 6 8 14 14 10 13 10 8
13 10 9 8 5 3 2 4 6 8 2 3 2 3 4 5 2 4 2 1 2 4 6 4 8 4 2 4 4 4 5 5 5 5 4 2 4 2 5 4 8 7 7 4 4 5 5
15 12 10 8 6 3 1 2 4 7 4 4 3 4 4 2 3 4 1 3 3 2 6 2 3 4 3 4 3 4 3 4 2 6 7 6 4 2 3 1 3 10 3 7 10 10 7
17 14 12 10 8 6 3 1 3 4 6 5 4 3 3 1 2 2 4 4 2 4 2 3 1 1 8 6 4 6 5 7 4 5 2 5 5 3 3 3 6 9 9 2 5 7 4
20 17 13 11 10 8 5 2 2 3 4 5 7 5 5 6 4 2 4 3 4 3 4 2 4 6 7 3 4 3 2 4 5 6 5 5 5 3 2 4 6 8 4 1 1 7 3
22 18 16 13 11 9 6 4 2 2 2 3 4 3 4 4 3 4 3 5 5 3 3 3 1 3 3 2 2 3 4 4 3 3 4 2 1 4 4 6 9 10 6 0 3 4 6
25 21 18 16 14 11 8 5 2 2 2 3 4 3 2 3 3 2 3 4 2 3 4 4 4 3 3 2 3 4 3 5 1 4 5 5 3 5 2 4 8 4 1 5 8 3 6
28 25 21 18 17 15 12 8 4 1 1 3 2 3 3 4 2 2 3 3 3 8 5 2 4 4 5 4 1 2 3 2 3 5 2 3 8 4 8 6 5 4 6 8 6 8 4

GFSGBSN_925_spd_006.txt.gz
Wind_Speed
8 10 11 12 13 13 13 11 8 6 5 5 5 5 5 5 6 8 9 8 7 4 2 2 6 9 3 4 1 11 14 14 15 17 19 4 7 3 4 3 3 4 2 4 2 6 3
8 9 10 12 13 15 12 8 4 3 3 3 3 3 4 7 9 11 9 8 6 4 3 3 9 6 2 6 8 14 13 12 16 17 12 11 3 1 5 3 4 1 1 1 1 3 1
7 9 10 12 13 15 10 5 4 2 1 2 5 7 9 10 10 9 8 7 6 6 5 7 9 5 4 1 11 14 15 11 14 13 5 5 3 5 3 3 5 3 5 6 6 5 2
7 9 11 12 13 13 7 6 3 3 4 4 7 8 9 10 10 9 8 8 7 5 6 6 8 4 1 7 8 13 16 11 10 7 7 5 4 5 5 1 6 6 6 5 6 3 3
6 8 10 12 14 14 8 7 5 5 6 6 7 9 10 11 11 10 9 8 6 6 5 6 4 5 2 7 9 12 14 7 9 12 12 8 7 4 7 4 5 8 1 2 7 5 5
6 8 10 12 15 17 10 8 7 7 7 7 8 10 11 11 8 7 7 7 8 5 5 6 7 5 7 4 5 8 14 7 4 3 5 9 6 5 5 6 1 2 2 2 3 5 7
5 8 9 11 14 18 14 8 7 7 7 8 8 10 10 9 6 6 5 2 5 6 10 3 2 3 3 6 3 9 9 3 5 9 5 6 8 3 3 1 0 0 1 2 3 1 5
5 7 9 11 13 17 17 8 7 5 6 6 7 8 9 10 8 9 8 6 3 2 3 2 3 2 1 3 6 11 9 6 6 3 2 6 4 1 5 5 3 3 2 4 5 3 0
4 7 10 11 12 16 18 10 5 5 3 4 5 6 7 8 8 16 16 7 4 2 5 5 3 2 3 4 4 8 6 2 5 6 5 5 1 4 4 6 6 4 2 2 5 6 1
3 6 9 11 12 14 17 14 5 4 2 3 4 4 4 4 5 6 5 5 4 2 5 8 5 3 4 2 4 5 9 3 6 3 2 4 4 5 6 4 2 4 2 2 4 2 2
2 4 7 10 11 13 16 16 7 4 3 2 4 4 4 3 9 4 3 3 3 3 5 5 6 3 4 6 2 11 7 6 4 4 5 2 3 6 7 2 1 6 4 2 1 2 3
2 4 6 9 11 13 15 17 11 3 3 3 4 6 6 6 6 5 3 3 3 6 1 3 2 4 5 8 6 6 8 8 2 6 7 2 3 3 2 3 2 6 3 5 4 2 3
2 3 5 8 11 13 15 17 14 3 3 4 5 7 5 4 3 3 2 4 5 6 3 2 3 4 5 6 6 7 7 9 4 4 6 6 4 5 3 5 6 9 6 3 5 5 4
3 3 5 7 10 13 14 17 16 4 5 6 7 7 8 6 3 2 3 5 6 3 1 1 3 5 5 4 5 7 3 5 5 5 3 4 5 5 6 1 2 3 4 4 2 1 5
3 3 4 7 10 13 14 17 17 5 6 6 8 9 5 6 3 2 5 5 6 5 1 2 3 5 4 3 5 5 4 2 3 4 3 3 3 5 2 2 1 2 4 2 5 2 3
4 4 3 6 9 12 15 16 18 6 6 4 4 5 5 3 3 4 5 3 1 4 1 2 3 0 2 5 3 4 2 1 1 4 1 1 2 1 4 2 5 6 4 4 4 2 3
5 5 4 5 8 11 14 16 17 12 3 4 3 4 4 3 3 5 4 4 3 2 2 3 2 3 3 2 3 2 1 2 2 3 5 2 2 5 2 4 1 4 3 4 3 3 3
6 5 5 5 7 10 12 15 17 17 2 2 4 3 5 3 4 1 2 1 1 3 6 5 5 3 3 3 3 2 2 3 5 2 3 2 4 3 4 1 1 2 3 3 4 4 2
6 5 5 5 6 9 11 13 16 18 8 3 3 1 3 1 3 2 1 4 4 4 5 3 3 4 4 3 4 3 4 2 5 3 2 1 2 3 8 5 4 3 2 4 5 3 6
8 7 5 5 6 8 11 12 14 17 10 3 3 2 4 4 1 6 4 2 4 4 4 6 3 5 5 5 6 2 2 3 6 4 6 5 2 5 5 6 4 5 4 4 5 3 3
8 7 6 5 5 6 10 11 13 15 11 2 3 1 2 0 4 4 4 2 3 3 3 5 5 5 4 3 3 3 3 5 4 6 4 3 2 4 5 8 7 11 11 7 8 8 6
9 7 6 5 5 5 8 10 12 13 9 5 4 4 3 2 2 4 4 1 3 3 3 2 6 2 4 4 4 2 2 2 5 2 2 3 3 0 4 3 4 8 12 10 9 7 11
11 8 6 5 5 4 6 8 10 11 6 4 2 3 4 4 2 4 2 4 4 5 5 3 8 4 3 5 5 3 5 1 1 2 2 0 3 2 5 3 8 8 6 5 4 5 6
12 9 7 6 5 4 4 6 8 9 6 4 3 4 4 2 3 3 3 2 4 2 7 3 5 5 3 4 3 5 5 5 1 3 4 5 4 2 3 4 2 8 2 6 7 8 10
13 11 8 7 6 4 3 3 5 6 7 4 5 3 3 2 2 3 5 5 3 4 3 3 2 1 6 5 4 6 5 6 3 5 2 4 5 2 3 3 5 9 8 1 4 7 3
16 13 10 8 7 4 3 2 3 4 4 8 10 6 5 6 4 3 4 3 3 2 3 2 3 4 6 3 4 3 2 4 4 5 5 5 5 3 1 4 5 7 3 1 2 6 0
19 16 13 10 9 7 3 1 2 3 3 4 7 5 4 4 2 4 3 5 5 3 3 2 3 3 3 2 2 3 3 2 2 2 3 1 1 6 7 5 8 8 5 1 2 3 4
21 19 16 13 11 9 5 1 1 2 3 3 7 6 3 3 3 4 4 5 3 2 4 3 4 3 3 3 3 3 2 5 1 4 4 4 3 4 2 3 8 3 1 1 7 1 8
25 22 18 16 14 11 8 5 1 1 2 4 4 5 5 5 3 2 2 2 2 6 5 1 3 4 4 4 1 3 3 2 4 3 1 4 7 3 7 6 5 4 7 10 5 7 5

GFSGBSN_925_spd_009.txt.gz
Wind_Speed
7 9 10 11 12 14 14 12 9 8 7 8 7 7 7 8 9 9 11 10 9 7 6 1 3 3 3 4 1 9 5 11 15 16 14 4 5 4 4 3 3 5 2 2 2 5 2
7 8 10 11 13 15 13 8 5 5 5 5 5 6 7 8 10 11 11 10 9 7 5 2 4 4 2 7 5 9 7 11 13 13 10 8 2 2 5 2 4 3 4 3 4 1 1
6 8 9 12 15 15 10 7 3 2 2 2 3 6 9 10 10 10 10 10 9 7 5 3 3 5 6 2 4 7 10 6 8 8 3 3 4 3 3 3 4 3 5 3 8 4 3
6 7 10 12 15 15 9 6 4 2 2 4 6 7 9 9 10 11 11 11 10 7 4 4 6 5 3 6 4 12 13 5 5 5 5 4 10 7 5 2 6 5 5 3 5 6 3
5 7 9 12 16 15 9 8 6 5 6 7 8 9 10 11 12 12 11 10 8 6 5 3 3 3 1 4 5 9 11 3 4 8 10 8 8 5 5 4 3 8 3 3 4 4 5
5 7 9 11 15 15 9 8 6 6 7 7 8 9 10 10 10 9 9 7 7 4 4 5 3 4 6 3 5 7 4 6 7 2 4 9 6 5 4 4 2 1 1 1 3 5 6
5 6 9 10 14 16 12 7 6 5 6 7 8 8 8 6 5 6 6 3 3 5 10 4 2 5 2 6 4 11 7 2 5 8 5 6 8 4 2 1 3 3 2 2 3 2 5
4 6 9 11 14 17 15 7 6 4 5 7 7 8 8 7 10 9 6 6 3 3 6 1 1 1 1 2 5 16 10 5 6 4 2 6 4 0 5 4 2 2 3 2 3 1 1
3 6 9 11 13 16 17 10 5 4 4 6 6 6 7 8 11 12 12 8 4 3 5 5 2 2 2 5 4 8 6 2 5 5 5 5 0 2 2 4 4 1 2 2 3 6 2
2 5 8 11 12 15 17 13 5 4 3 5 4 4 4 5 5 5 4 4 2 3 5 8 5 4 4 2 5 6 8 3 6 3 3 5 3 3 3 3 1 2 2 4 3 1 1
1 4 7 10 12 14 17 15 6 3 3 4 5 4 4 3 10 3 3 3 3 2 5 4 6 3 4 7 2 13 7 7 4 2 3 0 2 4 5 2 1 2 1 1 1 3 2
0 3 6 9 11 13 16 18 9 3 3 4 5 6 6 6 7 6 2 2 1 6 1 2 3 4 6 8 6 7 7 8 2 5 6 2 2 3 2 2 1 4 2 3 2 2 2
1 3 5 8 10 13 16 20 11 3 5 5 6 7 5 4 4 3 2 3 5 5 3 1 3 4 5 5 5 7 6 9 4 3 5 5 3 4 3 4 3 8 3 1 2 3 1
2 1 3 6 9 12 16 20 15 5 7 7 8 8 8 7 4 3 2 5 6 3 2 1 3 3 4 3 4 6 3 5 6 5 3 3 1 4 5 2 2 4 2 2 1 2 4
2 1 3 6 9 12 15 19 18 5 8 10 10 9 5 5 3 3 5 5 6 5 2 4 3 4 2 3 4 4 4 2 4 4 3 2 2 3 4 2 2 1 5 1 5 1 2
2 1 3 6 8 12 14 18 19 7 5 8 5 4 4 3 3 4 5 3 1 4 2 2 3 1 2 3 3 3 2 2 2 5 0 1 2 2 3 1 6 4 4 1 3 2 3
3 1 3 6 8 11 14 17 19 13 3 6 3 4 3 1 3 5 4 3 3 2 1 3 3 3 3 3 3 2 1 3 3 2 5 1 1 2 1 4 1 2 2 5 3 1 2
4 2 0 3 7 10 13 16 18 17 4 5 4 3 4 4 4 1 3 5 2 2 5 4 4 4 3 3 4 3 3 1 5 1 2 1 2 1 2 1 1 1 3 3 2 2 1
6 3 1 3 6 9 12 14 17 18 5 3 3 1 3 2 3 1 1 3 3 2 4 3 3 3 3 3 4 3 3 1 5 3 1 2 2 2 2 2 2 1 2 4 4 2 7
6 4 2 1 4 7 10 13 15 16 9 2 3 2 4 4 1 6 5 2 4 4 4 5 4 3 4 4 5 3 2 2 3 2 6 4 2 4 4 3 2 4 4 5 4 4 4
7 5 3 1 3 6 9 11 13 15 9 2 3 1 1 1 3 4 3 3 4 3 3 4 4 3 5 3 2 2 1 2 2 1 3 2 3 3 4 8 5 10 12 11 12 12 7
8 5 3 2 1 5 8 10 12 13 7 5 4 4 3 2 2 4 4 1 4 3 2 2 6 2 3 4 4 4 3 2 3 1 2 2 2 1 3 5 4 8 14 12 13 13 13
10 7 4 3 1 3 6 9 10 11 5 4 3 3 4 4 2 4 2 4 5 5 5 2 9 5 4 5 4 1 2 3 2 3 2 0 3 1 3 5 8 7 4 4 3 5 4
10 8 5 4 2 1 4 7 9 11 7 4 3 4 4 1 2 3 3 3 5 2 7 3 3 5 2 5 4 4 6 6 3 4 1 4 3 1 2 4 1 3 2 5 7 13 8
11 10 7 4 3 1 2 5 7 9 8 5 5 3 3 2 1 3 6 6 5 5 4 4 3 1 4 5 3 5 4 5 3 7 4 3 4 2 2 3 6 11 6 2 4 7 3
13 11 8 6 4 2 1 3 6 7 6 9 11 7 5 6 4 3 4 3 4 3 3 3 3 4 5 3 3 2 2 3 3 2 5 4 3 1 2 3 5 4 1 2 3 6 3
15 13 10 7 6 4 2 2 4 6 5 4 7 6 4 4 2 3 3 5 4 3 3 1 3 3 3 2 2 3 3 1 2 2 2 1 1 4 6 5 8 6 4 2 2 3 4
17 15 13 10 8 6 4 2 3 4 4 4 7 6 3 3 2 3 5 5 3 2 4 4 3 2 3 3 3 3 3 3 2 2 3 3 3 4 2 4 7 2 2 1 3 6 9
19 17 15 13 10 8 6 3 2 3 3 4 4 6 8 8 3 3 4 5 2 7 5 1 3 4 4 4 2 3 3 2 3 3 0 4 5 2 7 6 2 3 8 3 2 2 4

GFSGBSN_925_spd_012.txt.gz
Wind_Speed
11 11 10 11 12 14 14 13 11 10 10 10 10 10 9 11 10 10 10 10 11 9 5 3 1 1 1 4 5 6 5 7 7 5 4 6 7 5 6 9 10 13 9 7 6 7 3
9 9 9 11 12 14 12 8 6 6 7 7 8 8 8 9 10 11 12 13 11 8 6 3 2 4 3 6 2 6 3 4 6 4 6 2 3 6 8 5 1 6 8 6 4 4 3
9 8 9 10 12 13 7 4 4 2 4 5 6 6 7 9 11 13 13 13 11 10 6 2 4 6 3 5 2 4 1 1 3 4 4 4 4 4 6 9 4 8 9 6 5 4 3
7 7 8 10 13 11 6 4 2 1 2 5 6 8 9 12 13 14 13 12 11 8 5 3 5 3 4 1 1 6 2 2 2 2 5 4 7 7 2 6 5 6 4 5 6 2 2
6 6 7 10 13 11 6 4 3 4 5 7 8 9 10 11 12 12 12 12 9 6 3 4 2 3 6 2 2 5 4 2 4 5 5 4 3 4 5 7 6 2 3 2 7 3 4
4 4 6 9 12 11 5 5 5 5 6 8 9 10 10 11 11 12 11 8 7 5 3 5 2 5 2 3 4 5 1 2 2 4 5 1 2 5 4 5 1 3 3 2 1 5 6
3 3 6 8 11 12 6 4 5 6 8 9 9 9 9 10 11 9 8 4 4 4 6 5 6 5 2 1 3 6 2 3 3 3 3 4 3 6 7 6 4 1 1 3 3 4 9
1 3 5 7 11 12 8 4 5 5 8 9 8 6 5 8 10 9 6 1 4 4 9 5 3 2 2 2 5 12 7 1 0 5 3 4 7 5 4 4 1 2 3 2 1 1 5
1 3 5 7 10 12 9 5 3 4 8 8 7 6 8 11 9 4 5 5 4 2 6 5 3 3 3 7 7 11 8 3 7 6 3 3 6 2 1 5 4 2 2 4 5 6 3
2 3 4 7 9 11 10 6 3 3 7 8 7 5 6 7 5 5 4 3 3 2 3 3 2 4 2 0 4 9 8 3 3 9 8 7 3 2 2 4 7 2 2 8 7 6 3
3 2 3 5 8 10 11 7 2 4 7 8 7 5 6 4 9 3 4 3 4 1 3 1 4 3 5 3 2 10 5 4 5 5 4 4 4 4 4 4 5 5 8 5 3 6 4
4 2 3 6 8 11 13 9 2 4 7 8 9 9 9 6 4 6 5 5 2 2 3 4 1 5 8 10 5 3 5 8 1 7 10 7 2 4 5 2 2 5 3 2 1 2 4
4 2 2 4 8 10 13 11 3 5 8 9 10 8 4 5 4 5 4 3 4 3 1 6 5 4 7 5 7 9 12 11 4 3 2 4 5 2 6 4 4 8 3 2 2 3 1
4 3 1 4 7 10 14 13 5 7 9 11 11 10 7 8 6 5 2 3 4 2 1 3 5 7 4 3 6 6 4 9 12 6 3 2 4 8 9 5 5 6 6 3 3 2 3
4 3 2 4 7 10 13 14 9 8 9 13 13 8 4 4 4 4 3 2 3 4 4 7 8 4 4 4 2 3 8 5 9 10 3 2 3 3 6 5 4 3 4 1 2 1 3
4 3 2 4 6 10 12 14 11 7 10 12 5 5 3 2 3 1 1 2 2 1 2 3 4 1 4 4 2 2 3 3 2 7 4 2 2 1 1 3 7 4 3 1 2 2 4
5 3 1 3 5 9 11 14 12 6 9 9 3 4 2 3 3 1 2 3 4 2 1 2 4 4 4 4 4 3 3 3 3 3 5 3 3 2 3 2 2 3 2 2 1 2 3
6 3 2 2 4 7 10 13 14 6 9 8 3 3 4 5 3 1 4 4 2 4 3 4 4 5 4 3 3 3 4 3 3 2 2 4 1 1 1 2 3 2 1 0 2 2 2
7 4 3 0 3 6 9 12 14 7 8 5 2 3 4 0 3 3 4 4 3 3 3 3 3 2 3 4 4 5 3 2 3 1 2 1 0 2 3 4 3 5 2 1 1 1 9
8 5 3 0 2 5 8 10 12 9 4 4 2 3 2 2 1 9 10 5 5 4 4 6 5 6 7 5 3 6 5 2 1 2 3 1 2 4 4 6 4 6 7 7 9 5 8
9 5 4 2 2 4 7 9 10 10 4 3 2 2 2 4 3 9 5 6 10 5 3 2 4 3 5 4 4 4 3 4 2 3 1 2 3 3 7 10 13 12 13 12 15 16 11
10 6 3 1 1 4 7 8 9 9 4 4 2 3 2 3 5 10 1 7 8 5 2 4 7 7 5 5 2 5 4 3 2 3 1 2 1 3 3 7 11 13 16 15 13 14 14
11 8 5 3 1 3 6 8 9 8 3 3 2 2 1 1 3 4 3 7 8 8 5 3 13 10 8 8 6 7 6 5 3 1 2 1 2 1 3 8 13 6 3 2 4 4 8
12 9 6 4 2 2 5 7 8 8 6 5 3 3 2 3 2 3 7 5 12 3 8 7 4 5 4 10 10 7 9 6 3 3 1 4 3 1 2 4 3 3 6 9 13 14 9
12 11 8 5 3 2 3 6 7 8 6 7 5 2 3 3 2 5 9 10 10 8 9 7 5 4 7 2 2 3 1 2 4 6 3 2 3 3 2 4 14 12 4 3 3 13 4
13 12 9 6 5 3 3 4 6 6 7 10 9 6 3 6 4 5 6 9 6 5 4 3 4 3 2 2 2 2 1 1 3 4 4 4 4 2 3 3 4 4 4 4 3 9 2
13 12 10 8 6 4 2 3 4 5 5 4 6 5 2 3 3 3 3 6 4 4 5 4 5 2 2 2 2 2 2 1 3 3 4 3 2 4 6 6 7 5 3 2 4 4 11
14 13 11 9 8 6 3 3 3 3 3 3 6 5 2 3 4 1 3 5 4 4 5 6 5 2 2 3 3 3 2 4 3 2 3 3 4 4 2 4 6 2 3 4 7 9 3
15 14 12 10 8 7 5 3 3 3 3 4 3 6 9 6 3 2 3 3 3 3 5 5 1 5 5 4 3 3 3 1 1 3 4 5 5 3 7 6 4 10 14 8 5 4 3

GFSGBSN_925_spd_015.txt.gz
Wind_Speed
10 12 13 14 16 18 20 21 20 17 14 13 13 13 13 12 12 12 10 10 11 11 9 7 2 4 2 8 5 4 7 7 1 5 10 7 4 2 2 5 4 10 8 9 7 5 1
9 10 12 14 15 17 19 17 14 11 10 11 11 12 11 10 10 10 10 12 12 11 9 4 1 5 6 5 1 3 5 4 3 5 3 5 2 3 5 8 1 7 9 8 7 6 4
8 9 11 12 15 17 16 12 9 9 8 9 10 10 10 9 10 11 12 14 12 10 7 2 5 3 10 6 1 3 4 5 5 7 0 2 0 6 8 6 4 8 8 9 8 8 5
6 8 10 11 13 15 13 9 7 6 6 6 7 8 9 10 11 13 14 13 12 8 3 3 5 4 1 2 3 3 5 3 3 3 5 4 2 1 5 7 7 11 9 11 9 8 5
6 7 8 10 12 13 10 7 4 3 3 5 7 8 9 11 12 13 13 11 8 4 2 3 2 7 4 3 6 3 3 3 1 2 3 3 5 4 5 12 10 9 11 3 9 4 2
5 6 7 9 10 11 7 4 2 2 3 5 7 8 9 11 11 11 11 8 5 4 3 2 8 7 3 1 1 2 2 3 5 6 6 6 7 10 11 11 9 7 4 9 2 7 6
5 5 6 8 9 10 6 2 1 2 4 6 7 8 9 10 12 12 10 5 6 5 10 6 11 3 8 4 5 3 2 6 9 9 10 6 11 4 10 7 8 5 4 5 5 5 6
4 4 6 6 8 9 6 2 1 3 5 7 7 7 8 9 10 9 5 6 7 6 10 6 6 7 3 2 8 7 4 9 9 10 5 9 5 5 2 2 3 4 5 1 1 2 6
4 4 5 4 6 8 7 2 2 5 7 7 7 6 9 10 11 7 6 3 2 3 6 6 3 4 3 2 4 5 7 4 6 5 5 9 9 2 4 1 7 3 7 6 10 8 10
5 3 3 4 5 8 7 3 2 5 7 7 6 5 9 11 6 8 4 1 2 3 4 6 5 4 3 1 4 6 4 4 2 3 6 5 4 0 2 2 8 8 4 8 10 8 6
6 3 3 3 4 8 8 3 4 6 8 7 5 4 7 4 5 5 4 1 1 3 3 4 5 2 3 2 3 6 4 4 4 7 5 5 3 0 1 5 6 6 8 8 8 9 9
7 4 3 2 3 7 8 2 5 7 9 8 7 7 9 4 2 4 2 1 2 4 3 6 4 7 8 7 6 5 4 5 4 4 7 8 2 4 6 4 4 7 8 6 6 4 5
8 5 3 1 3 6 8 2 7 8 10 10 9 6 2 1 3 4 3 4 4 4 3 7 8 5 8 8 8 6 5 5 0 5 5 7 4 4 6 9 6 8 7 4 3 4 1
8 5 2 1 3 6 8 3 7 9 11 11 10 7 4 3 3 3 4 6 6 3 6 4 9 10 5 7 4 4 5 8 9 6 3 4 7 5 6 5 6 5 7 3 4 3 5
9 6 3 1 2 5 7 5 7 10 12 13 12 6 4 1 2 2 7 6 3 7 8 11 12 9 7 5 3 5 9 7 7 9 4 3 4 5 5 5 6 3 4 3 1 1 3
10 7 4 2 2 4 7 6 6 10 14 16 9 8 5 2 2 5 5 2 2 2 2 13 7 4 6 8 6 4 2 3 3 7 5 3 2 1 3 4 4 7 3 3 1 3 4
11 8 4 2 1 4 7 7 4 12 16 12 9 6 3 4 3 6 5 3 5 5 1 3 3 4 6 5 3 3 3 5 2 4 5 6 3 5 3 2 8 2 1 3 5 3 4
11 8 5 3 1 3 6 9 4 12 15 10 5 5 2 4 6 4 5 6 1 8 3 3 2 4 6 4 3 3 5 5 3 4 4 6 2 2 4 4 3 3 4 4 2 3 3
12 8 6 3 1 3 5 8 6 11 15 7 3 4 2 4 4 3 5 6 3 7 3 4 3 1 4 5 4 6 5 4 4 4 6 5 1 3 5 6 4 4 1 2 1 2 10
12 8 6 3 1 3 5 7 8 5 11 4 3 3 4 5 3 9 9 9 7 2 4 4 6 6 8 6 4 7 7 4 2 5 4 2 1 3 5 8 6 8 9 9 10 7 11
12 9 7 4 2 2 5 7 7 3 7 3 2 2 1 6 5 8 9 10 10 5 3 6 4 4 7 4 6 5 7 6 3 3 1 3 2 4 9 11 11 12 13 14 15 15 14
13 10 6 4 2 2 4 7 7 4 5 2 2 3 2 3 6 9 5 10 12 5 8 7 7 8 6 6 2 6 5 3 2 4 1 2 1 3 4 7 11 15 17 18 16 11 13
13 11 7 5 3 1 4 5 7 5 2 2 2 1 3 2 8 8 7 9 9 9 2 3 10 8 9 9 10 10 8 5 4 2 3 1 0 2 4 10 13 6 3 3 7 8 8
14 11 8 6 4 2 3 5 6 5 3 2 2 2 3 4 7 8 8 8 12 6 8 8 6 8 6 9 10 9 9 5 2 2 2 4 1 2 3 5 3 6 11 14 10 9 10
14 12 9 7 6 3 2 4 5 7 4 4 3 1 3 3 5 6 10 13 10 11 13 11 6 6 9 2 2 2 1 3 1 4 3 2 3 2 2 5 14 12 4 6 9 13 11
15 13 10 7 6 4 2 3 5 5 6 5 4 3 2 6 4 9 10 13 11 7 6 4 5 4 2 2 2 2 3 1 5 6 4 4 2 3 3 3 4 3 2 4 6 11 5
16 14 11 8 6 4 3 2 4 5 5 4 3 3 1 3 3 6 6 10 5 9 5 6 6 3 2 2 1 3 3 2 4 3 4 3 2 5 6 5 8 8 3 4 5 3 10
14 14 11 8 7 5 3 2 3 3 3 5 2 4 3 3 5 1 2 6 4 6 5 8 5 2 2 2 3 3 1 4 3 2 5 7 6 4 4 4 6 3 6 3 7 15 8
14 13 12 9 6 6 4 2 2 3 3 4 2 6 8 3 4 4 4 4 4 7 3 9 0 6 5 3 3 2 2 0 0 3 5 4 7 4 8 5 9 6 10 6 5 6 3

GFSGBSN_925_spd_021.txt.gz
Wind_Speed
17 15 12 13 13 14 16 18 20 19 18 16 14 13 13 12 12 12 13 11 11 11 10 9 9 8 1 2 8 6 3 6 6 11 13 6 9 6 8 6 3 9 6 7 6 8 6
15 13 12 11 13 14 17 18 20 16 15 13 12 12 12 11 11 11 11 11 11 11 9 7 7 4 1 4 6 2 3 6 13 13 10 14 6 8 1 6 4 6 9 7 4 4 4
13 11 12 10 12 14 17 18 16 14 13 12 11 11 10 10 11 10 11 11 10 9 6 6 5 1 3 11 11 3 5 5 8 9 5 12 10 8 5 6 1 9 6 6 5 7 4
13 11 11 10 11 14 16 16 13 12 10 9 8 8 9 9 10 10 10 9 7 6 5 6 2 2 5 11 8 3 9 4 4 8 12 12 13 7 3 3 3 3 4 5 6 9 6
13 11 10 8 11 13 15 13 11 9 8 6 6 6 7 8 9 8 7 7 6 5 6 4 1 2 6 6 4 1 4 9 2 3 4 7 4 2 4 3 2 2 5 6 6 11 6
13 11 8 7 10 12 13 11 9 7 5 3 3 4 6 8 7 9 10 7 4 4 3 2 7 3 8 4 5 2 2 6 3 2 1 2 1 1 5 4 3 4 5 6 7 4 3
13 11 7 7 9 10 11 9 7 5 4 2 2 5 6 8 10 11 9 2 2 1 5 8 8 5 6 7 6 9 9 5 5 3 4 6 5 4 4 3 4 5 4 9 5 6 2
13 11 7 6 7 8 10 8 6 3 1 1 4 6 7 8 9 9 8 3 3 1 4 18 12 8 3 6 5 5 7 1 2 6 6 3 4 4 1 2 3 5 7 6 4 4 3
14 10 7 6 6 7 9 8 4 1 1 3 4 6 8 9 8 9 10 11 13 10 4 3 2 4 1 4 2 4 2 5 7 6 5 6 3 2 4 7 9 9 6 5 3 6 3
14 10 7 5 5 5 7 7 3 1 3 3 3 6 10 10 5 5 6 9 5 7 4 3 2 2 3 4 4 4 4 3 3 3 11 7 3 4 5 8 7 5 6 5 6 5 2
14 10 8 5 3 5 6 6 3 3 4 5 5 6 9 12 8 1 3 3 6 2 4 7 4 5 3 1 8 2 2 5 4 4 7 2 5 7 9 4 4 2 2 3 3 4 3
14 11 7 5 3 4 6 5 3 6 7 6 4 8 9 2 6 5 8 5 1 5 2 3 5 5 5 3 2 5 2 2 3 7 9 5 5 4 4 4 2 5 4 6 4 2 2
15 11 8 5 2 3 6 5 3 7 8 7 6 9 5 2 1 8 7 2 4 4 6 5 4 7 7 2 5 6 5 3 3 3 2 3 4 3 2 4 1 3 6 4 4 4 3
15 11 8 5 2 3 5 5 3 8 9 8 7 6 2 1 3 5 4 5 1 5 4 5 6 4 7 3 4 3 6 4 8 6 2 5 2 5 6 5 2 4 4 4 1 1 4
15 11 8 5 2 2 5 4 4 9 11 10 8 3 2 1 1 3 5 2 4 4 5 6 4 5 4 3 2 4 8 3 5 7 4 4 3 4 6 3 3 5 5 1 5 2 3
15 11 8 5 2 2 4 4 4 10 13 13 6 4 4 2 1 3 4 4 1 5 5 5 5 5 7 8 4 4 4 4 3 5 2 5 4 2 3 1 3 5 2 5 4 2 2
14 11 8 5 2 1 4 5 4 11 15 15 1 2 5 7 3 4 2 5 3 6 8 5 3 2 2 7 6 5 4 5 7 2 7 4 4 3 2 4 4 4 2 4 2 4 4
14 11 8 5 2 1 4 5 5 12 15 13 2 1 7 9 3 3 3 3 1 3 3 2 3 5 3 5 5 5 4 4 8 6 3 3 4 3 3 2 2 0 3 4 4 3 1
14 11 8 5 2 1 3 4 4 15 20 6 2 3 3 2 3 2 5 3 1 5 4 1 5 6 5 4 5 9 5 5 7 5 2 3 2 3 4 4 4 1 4 4 5 3 5
14 11 9 6 3 1 2 3 2 15 21 1 1 2 2 1 2 4 4 3 2 5 3 4 5 3 3 4 4 4 4 2 4 3 3 2 2 5 5 3 1 2 5 4 6 3 3
15 11 9 6 3 2 2 3 1 9 13 6 1 4 7 3 4 4 5 8 6 2 2 2 1 3 4 3 4 5 5 4 2 1 2 3 3 4 4 5 4 3 5 7 5 5 4
16 12 9 6 4 2 2 4 4 5 11 5 1 2 2 4 5 4 5 6 8 8 6 4 3 6 7 4 2 6 8 5 4 5 4 4 1 2 1 6 7 4 7 8 8 2 3
16 12 9 7 4 2 3 4 5 5 11 5 5 6 4 5 3 4 3 0 1 7 3 4 4 11 14 6 9 6 8 5 6 5 3 3 4 3 2 4 5 4 4 5 4 3 3
17 13 10 8 5 3 3 5 5 5 4 2 3 3 4 2 1 4 6 5 8 6 6 7 8 7 4 6 6 8 11 12 9 7 5 4 3 3 2 4 2 5 2 5 6 4 6
17 13 11 8 5 3 4 5 6 5 5 4 4 3 3 1 1 4 3 3 9 13 7 11 8 5 8 6 4 5 5 7 5 6 5 4 4 3 3 1 6 5 3 4 4 3 6
17 14 12 9 6 4 5 6 7 6 6 6 7 4 4 5 4 7 2 9 6 4 4 4 5 10 6 3 4 4 4 5 3 2 7 7 6 4 2 4 6 6 5 5 1 3 4
17 15 12 9 7 5 5 6 7 6 6 5 5 4 2 3 3 5 2 6 6 5 4 4 1 3 5 3 2 2 3 2 5 7 3 3 1 5 3 3 7 8 5 4 5 6 2
17 15 12 10 7 5 5 6 7 6 7 6 6 7 3 3 3 7 7 5 4 5 5 4 4 4 3 3 3 3 2 4 2 7 7 7 7 4 3 3 7 7 4 8 6 4 6
17 15 12 10 8 5 5 6 6 6 6 5 5 9 9 6 3 6 11 12 8 2 5 4 6 4 5 4 1 3 1 0 1 3 4 2 7 6 8 6 7 4 6 4 4 6 4

GFSGBSN_925_spd_024.txt.gz
Wind_Speed
18 17 16 15 14 12 14 15 16 18 19 18 16 14 13 12 13 13 13 14 12 10 7 6 3 5 2 1 8 6 10 9 10 8 11 6 6 6 6 4 4 7 3 6 5 7 3
19 18 15 13 13 13 14 15 17 18 16 15 13 12 11 11 13 12 13 13 11 7 6 2 2 4 1 3 4 11 12 10 10 12 7 9 6 6 5 6 7 6 7 6 6 3 3
19 17 15 13 11 13 15 15 16 15 13 12 12 11 11 11 12 12 12 11 8 6 3 1 2 0 2 13 5 13 9 10 5 12 3 2 4 1 2 5 6 8 6 5 0 3 3
18 17 15 13 11 13 14 14 14 12 11 11 10 10 11 11 12 11 10 7 6 6 3 1 1 3 6 11 14 14 5 5 3 3 6 8 9 1 4 2 6 5 5 3 3 3 1
19 18 15 12 11 12 13 12 12 10 8 8 7 7 9 10 9 8 7 7 7 4 2 1 2 4 8 13 5 8 2 4 5 2 8 10 5 3 7 4 5 5 3 4 2 8 3
21 18 15 12 11 11 10 11 9 7 6 6 5 6 8 8 9 9 10 8 5 2 2 1 4 2 7 4 4 1 0 4 3 4 7 7 5 4 4 4 3 5 5 3 7 5 2
23 18 15 13 11 9 8 9 7 5 4 3 4 5 6 9 10 12 10 4 2 1 4 7 4 3 5 4 4 3 2 4 3 3 1 6 5 3 6 5 4 5 5 7 2 1 4
24 19 16 13 11 8 7 7 5 3 3 3 5 7 9 11 10 10 9 2 3 3 3 10 9 7 18 5 1 4 3 2 1 2 3 6 3 5 5 6 7 5 8 4 5 7 4
25 20 16 14 10 9 7 5 3 3 5 5 6 9 11 11 10 10 6 7 6 11 1 4 7 6 4 3 3 4 3 1 3 1 2 6 4 2 6 6 7 5 5 3 2 3 3
25 21 17 13 10 9 6 3 3 5 6 6 7 10 12 12 7 3 4 9 5 2 4 3 1 2 1 4 3 1 2 2 3 1 8 4 5 7 6 5 1 2 3 3 2 4 2
25 21 17 13 11 9 5 4 4 7 7 7 7 10 12 13 2 6 5 7 5 2 3 3 2 5 1 2 4 3 2 3 1 2 7 2 5 7 6 0 1 3 2 1 1 3 4
26 22 17 13 11 9 5 4 6 9 9 8 8 9 12 10 4 1 7 7 1 6 2 4 5 4 3 1 1 2 0 3 1 6 6 4 3 3 2 3 0 1 2 7 4 3 3
26 22 17 14 12 9 5 5 8 11 10 8 7 13 11 3 1 4 6 4 5 4 2 5 5 5 4 3 3 3 4 6 4 4 3 5 3 4 3 4 6 8 5 3 4 4 3
26 22 18 14 12 9 4 5 9 12 12 11 12 12 5 3 2 4 3 5 2 4 4 3 5 6 5 3 3 3 3 3 6 4 3 4 3 4 6 2 1 3 5 5 4 2 3
25 22 18 14 13 8 4 6 9 13 14 13 11 7 3 3 1 1 5 3 5 3 2 7 5 5 2 2 5 6 3 3 1 2 5 4 1 1 1 1 2 3 4 4 6 3 3
25 21 18 14 12 7 5 6 11 15 16 15 8 5 2 3 2 4 4 5 3 3 3 4 5 5 5 6 4 4 2 2 0 4 2 3 4 2 2 4 6 5 2 4 4 2 1
25 21 18 14 10 7 5 6 12 17 18 16 4 3 3 5 3 5 3 5 2 3 5 4 1 5 5 7 6 3 2 3 5 3 5 2 4 4 4 2 1 4 3 5 4 3 4
25 21 17 14 10 8 5 6 13 17 18 14 4 3 3 6 3 1 2 4 3 3 5 4 3 3 5 4 4 3 3 2 5 1 3 2 5 3 1 3 2 2 3 4 4 2 2
25 21 17 13 10 8 6 6 14 19 21 8 4 3 3 1 3 2 4 3 2 2 1 2 3 4 4 4 6 3 3 2 8 4 2 2 2 3 6 6 5 3 1 5 6 3 5
24 20 17 14 11 8 6 6 13 20 20 5 3 3 3 3 1 6 2 2 2 3 2 4 3 5 5 5 6 5 2 4 4 3 2 2 3 5 6 4 3 3 2 4 5 3 3
23 19 16 14 11 9 7 6 11 18 23 2 2 4 6 4 3 3 3 5 3 2 2 3 4 3 4 3 3 4 3 2 4 3 3 3 3 1 2 4 2 1 2 2 4 5 5
22 18 15 13 11 9 7 7 10 16 18 4 3 3 2 3 5 5 5 6 8 3 3 0 2 4 5 4 5 7 6 3 4 2 2 3 1 2 1 5 6 3 5 5 4 3 4
21 17 15 13 10 10 8 8 10 19 18 3 3 1 5 3 5 4 4 6 8 8 3 4 10 7 9 4 5 5 4 5 6 6 2 3 4 3 3 4 5 5 6 3 1 3 4
20 17 15 12 10 10 9 9 10 17 14 4 2 3 4 1 3 6 3 2 6 2 7 3 5 6 4 6 2 6 11 10 10 8 4 4 4 3 2 3 1 5 5 5 6 3 8
19 17 15 12 10 10 9 9 9 9 10 7 2 3 3 1 1 2 3 9 8 7 6 5 6 1 7 6 5 5 5 6 4 6 7 4 5 3 3 3 5 2 4 5 6 5 6
19 17 15 11 10 10 9 9 9 8 9 8 7 6 5 5 3 3 5 7 6 4 5 4 5 5 7 3 4 4 4 4 2 1 6 6 6 4 3 4 6 5 3 6 5 4 7
19 17 15 11 9 9 9 9 9 8 7 7 7 6 5 4 2 3 4 5 6 5 4 2 1 4 4 2 3 3 4 4 5 6 4 2 3 5 2 2 7 7 4 4 5 7 7
19 17 15 12 10 9 9 9 9 8 7 8 9 7 3 3 3 4 4 4 3 3 5 4 4 4 3 4 3 4 3 5 2 5 6 7 7 4 3 2 8 7 4 7 6 4 6
19 17 15 12 10 9 10 10 9 8 6 7 6 9 10 5 3 6 11 11 4 4 6 1 6 4 5 4 2 3 1 1 2 3 3 2 7 5 9 6 5 6 5 4 7 6 7

GFSGBSN_925_spd_027.txt.gz
Wind_Speed
22 22 21 18 19 18 16 17 17 17 19 21 22 19 16 14 13 12 11 11 12 11 10 4 4 6 1 2 8 6 6 4 11 16 14 6 6 5 3 4 2 5 5 3 6 8 5
24 23 22 20 21 18 17 17 18 18 20 20 19 16 14 12 12 11 11 11 12 10 6 3 5 3 1 3 5 3 15 9 11 15 9 10 7 7 4 6 4 6 3 4 4 5 2
24 25 23 21 20 19 17 17 18 18 19 17 17 15 14 12 11 10 10 10 10 7 5 3 3 1 2 12 3 16 17 12 16 17 6 17 19 5 6 5 3 6 6 5 3 1 3
25 25 24 22 19 19 18 16 18 17 17 15 16 13 12 10 11 8 8 7 7 5 4 3 2 2 7 6 13 16 11 9 9 12 12 4 9 5 3 4 6 4 5 3 3 4 4
27 26 24 22 20 19 17 16 17 16 15 14 14 11 10 10 10 7 6 5 5 5 4 3 1 2 8 11 7 5 4 4 2 5 1 1 4 4 6 6 4 7 2 2 3 3 2
28 27 25 22 21 19 15 16 16 15 14 12 12 9 10 9 8 8 8 8 5 3 3 2 3 2 6 3 4 2 1 2 4 3 5 8 5 4 3 5 3 4 1 2 5 5 4
29 28 25 23 22 19 15 15 15 13 12 10 9 8 9 9 10 12 12 6 2 0 4 7 4 3 3 9 4 3 2 2 5 9 4 4 6 0 3 1 3 2 2 3 3 1 5
32 29 26 24 22 18 15 15 14 11 10 9 8 9 10 11 13 15 11 3 4 1 4 11 6 7 10 7 3 3 1 4 4 2 3 7 2 0 7 5 5 5 6 3 1 5 6
34 30 27 25 21 17 16 15 13 11 9 9 10 11 12 14 14 11 7 5 4 10 2 5 6 4 5 8 3 3 2 2 3 2 2 4 3 5 6 6 8 4 4 3 3 4 6
36 31 29 25 22 18 16 15 12 11 11 10 11 12 14 16 9 6 5 5 5 3 4 4 3 5 3 4 3 1 2 3 3 4 7 5 5 5 6 6 4 2 1 3 3 4 3
36 32 30 26 22 18 16 15 12 12 12 12 12 14 16 13 7 5 1 4 2 3 4 3 3 2 2 4 3 3 3 4 2 5 6 2 3 5 6 1 3 3 2 3 3 3 3
38 34 30 27 22 19 17 14 12 14 14 13 13 17 17 9 3 4 3 1 3 6 2 2 3 3 4 2 1 1 5 7 3 5 6 3 1 3 2 2 1 1 4 6 4 3 3
38 34 30 27 23 20 17 14 13 16 16 15 14 17 18 8 3 1 0 4 5 4 1 4 3 3 3 2 3 3 4 5 3 5 3 5 4 5 2 2 3 5 5 2 3 3 4
39 35 31 27 23 20 16 14 14 17 17 15 16 18 11 7 3 1 3 5 2 3 4 2 5 3 5 3 4 3 3 3 5 4 3 4 4 3 5 2 3 3 4 4 5 3 3
40 35 30 26 24 19 16 13 15 19 19 16 18 16 4 5 4 3 6 3 5 6 3 6 5 4 2 2 5 5 3 2 0 2 5 4 1 2 0 1 3 1 3 3 6 3 3
41 35 31 27 23 18 15 13 17 22 22 21 14 8 3 7 5 6 5 4 4 4 2 5 5 5 5 5 4 4 1 2 1 4 2 5 3 1 3 3 3 4 4 3 4 2 1
41 34 31 27 21 18 14 14 19 24 23 21 7 4 3 6 4 5 3 6 4 4 1 4 5 4 5 6 4 3 1 3 3 2 5 3 4 4 2 3 1 4 2 6 5 3 4
40 35 30 26 21 16 14 15 21 25 25 17 5 3 2 4 4 1 3 4 4 2 6 4 4 3 5 4 4 3 4 1 4 1 2 2 5 3 1 5 3 1 3 4 4 2 1
38 34 30 25 20 16 14 16 24 27 27 10 4 2 2 1 4 1 4 4 1 2 3 2 2 2 2 5 6 2 3 1 4 3 4 2 2 3 6 6 5 1 2 5 6 3 4
37 33 29 24 19 15 14 17 26 30 26 8 4 3 3 3 1 7 3 3 1 4 3 3 3 5 5 5 6 5 3 2 1 3 2 4 3 5 6 4 3 3 3 4 5 3 3
35 32 27 23 18 15 13 17 26 30 21 7 2 4 5 4 2 4 4 2 3 2 2 4 4 2 4 4 3 4 2 2 4 2 3 4 3 2 3 4 2 1 4 6 6 5 6
34 30 26 21 18 15 14 17 25 30 20 4 4 4 3 2 6 6 3 5 6 2 3 0 5 3 2 6 6 7 6 3 3 3 3 4 1 1 1 5 6 3 5 6 5 4 7
32 28 24 21 17 14 12 18 25 29 21 4 3 2 5 3 4 6 5 6 8 6 4 4 8 5 4 2 3 4 4 5 5 5 3 3 4 3 3 4 4 6 9 9 5 4 7
30 27 24 20 17 13 12 17 25 30 24 5 4 4 4 1 3 6 7 3 6 4 7 3 5 6 3 6 4 6 11 11 11 8 3 5 4 2 2 3 2 6 3 4 5 3 3
28 26 23 19 16 13 13 16 22 30 20 4 5 3 4 2 1 3 8 6 7 6 5 3 4 0 8 5 5 5 5 6 5 7 6 3 5 3 3 3 5 4 4 6 7 7 7
27 26 23 19 16 13 13 15 18 22 19 8 5 4 4 6 2 3 5 5 6 4 4 3 5 7 6 3 4 4 4 4 2 1 5 5 6 4 3 4 6 5 3 5 4 5 9
27 25 22 18 15 14 14 14 14 16 16 11 5 4 5 4 2 1 3 6 6 5 4 2 3 2 3 2 3 3 3 3 4 5 3 2 3 5 2 3 8 7 4 3 5 7 7
27 24 20 18 16 14 14 13 14 14 14 9 8 5 3 3 2 3 3 4 4 3 5 5 4 4 3 4 3 3 3 5 2 4 6 7 7 4 3 1 8 7 2 8 6 1 7
26 23 19 17 16 14 13 13 12 13 15 11 7 13 13 6 3 5 11 12 4 5 6 2 4 4 5 4 1 3 2 2 2 3 2 2 7 5 9 6 4 6 4 4 6 6 6

GFSGBSN_925_spd_030.txt.gz
Wind_Speed
28 26 25 24 23 22 22 21 20 20 21 21 21 23 20 18 15 13 14 12 12 12 11 7 5 6 2 2 8 4 11 1 13 17 12 6 5 5 4 5 4 3 3 3 5 8 8
30 29 27 26 25 23 23 23 20 20 21 22 22 22 17 16 13 12 13 12 12 11 8 5 4 3 0 3 4 6 10 5 11 19 10 10 7 7 3 3 4 5 4 2 4 4 5
31 30 27 27 26 25 24 22 22 20 21 23 21 18 16 15 13 13 11 11 10 9 5 3 1 1 2 11 3 12 18 9 15 16 6 19 15 4 2 3 3 3 4 5 5 2 4
33 32 29 27 27 26 24 22 21 22 21 22 21 16 15 13 12 12 10 8 8 5 5 3 2 2 7 4 11 15 10 6 9 13 19 9 19 5 2 3 6 5 5 4 3 1 1
36 33 31 28 28 27 25 21 21 22 21 21 19 15 13 11 11 10 9 6 4 6 4 4 2 2 8 7 7 4 6 3 2 8 8 7 7 3 4 5 5 7 3 1 1 2 3
39 35 33 29 29 27 25 21 21 21 20 21 17 13 12 10 11 10 10 6 6 4 4 2 2 2 6 2 5 3 3 3 2 2 3 4 5 4 5 5 4 5 4 1 3 2 2
42 38 34 30 29 27 25 22 21 21 19 19 14 12 11 10 11 12 12 6 3 1 4 7 4 3 3 10 5 0 2 1 3 8 2 5 7 3 5 5 4 4 3 3 2 2 7
43 40 36 32 31 28 26 22 20 20 19 16 13 11 11 11 13 14 11 3 5 3 3 11 6 6 10 4 2 3 1 3 4 3 1 6 4 3 4 4 6 6 5 2 2 6 6
45 42 38 34 32 29 25 23 21 18 18 14 12 12 13 15 15 14 10 7 3 5 2 2 6 5 4 7 4 4 2 2 3 3 4 6 1 3 4 5 8 4 4 1 2 3 7
49 44 41 36 32 29 26 23 20 19 16 14 12 14 15 17 11 8 6 5 6 6 4 4 3 5 4 3 2 1 1 3 4 4 5 5 3 5 6 5 3 3 0 2 4 3 3
52 46 42 38 34 30 27 23 20 18 16 15 14 16 19 20 8 6 2 4 4 2 3 3 3 1 3 4 4 3 6 3 4 4 4 1 2 5 7 1 2 1 5 4 3 5 4
53 47 43 39 34 31 27 24 20 18 18 17 17 19 21 15 7 4 3 3 2 6 3 2 4 3 3 3 2 1 4 7 4 5 6 3 2 3 2 2 3 4 5 8 5 3 2
41 48 44 40 35 31 27 23 20 19 19 19 19 22 26 8 4 3 3 2 5 4 1 3 4 3 3 2 4 4 5 5 4 5 4 6 4 5 2 3 3 6 5 3 3 3 4
33 50 45 40 35 31 27 22 21 20 21 20 19 22 25 11 6 2 2 5 2 3 5 1 4 3 4 3 3 4 3 3 5 4 3 4 4 3 5 2 4 3 5 5 5 3 3
38 51 46 40 35 30 25 23 21 20 22 21 20 20 7 7 8 4 5 4 6 6 3 6 4 5 1 2 5 5 3 2 1 1 5 4 0 2 2 2 3 2 3 3 6 2 3
46 52 47 41 35 29 26 22 22 21 24 24 18 11 4 8 8 4 5 5 3 4 1 4 4 3 4 3 4 4 1 2 2 3 1 5 4 2 2 3 5 2 5 3 3 2 3
44 52 45 41 36 29 26 22 22 24 27 26 9 4 3 7 6 5 4 5 4 6 4 4 5 4 3 5 3 2 3 1 1 2 3 3 4 4 1 3 3 2 2 6 4 3 4
43 52 45 40 34 30 26 23 23 27 29 18 5 3 2 6 4 1 4 5 3 2 3 3 4 3 5 3 4 3 4 1 3 1 3 1 5 2 2 2 2 2 3 5 4 3 1
45 47 43 38 33 30 26 24 24 29 34 9 4 3 3 3 4 1 2 2 3 2 3 2 3 2 3 4 5 2 3 1 2 2 6 5 1 3 6 5 4 2 3 4 5 3 5
46 43 40 37 33 29 26 25 27 33 33 5 4 3 3 3 1 7 5 3 2 2 3 4 4 4 4 4 6 5 3 1 1 2 5 6 3 5 7 4 2 4 4 4 5 3 4
46 42 40 35 31 28 26 26 31 35 32 5 2 3 4 3 1 4 4 4 4 2 2 5 4 3 5 4 3 3 2 2 4 1 3 3 4 2 1 3 1 2 5 6 7 5 6
44 41 37 33 29 26 25 26 33 35 27 3 4 4 3 1 6 6 3 5 6 3 3 2 5 1 2 5 6 8 6 4 4 3 3 3 2 1 2 4 5 3 5 6 5 3 7
40 38 34 30 27 25 23 26 34 36 22 4 2 4 5 4 3 6 6 6 7 6 3 3 6 5 4 1 3 4 5 7 5 5 3 3 5 3 4 4 5 6 9 11 6 5 7
38 34 31 28 25 22 22 26 33 37 25 3 4 5 4 2 3 6 7 3 5 4 7 2 4 5 1 6 6 6 10 11 11 8 3 5 4 3 2 3 2 6 2 4 9 5 8
34 31 29 26 22 19 21 27 33 38 26 4 6 4 4 2 2 3 6 6 7 5 4 3 4 2 8 4 5 5 5 6 5 7 7 3 5 3 4 3 6 5 5 7 8 7 8
31 29 26 23 19 17 19 25 32 36 28 7 6 7 4 6 4 4 5 4 5 4 3 3 4 5 6 3 4 4 4 4 2 1 4 5 6 4 3 3 6 6 3 3 3 5 7
30 28 25 22 19 18 18 20 28 34 25 9 5 5 5 4 1 2 4 6 5 5 4 4 5 1 3 3 3 3 3 2 3 5 3 3 3 5 2 3 8 7 3 1 5 7 5
29 26 24 21 19 18 17 18 25 30 22 16 5 3 3 3 2 3 3 5 3 3 5 5 4 3 3 4 3 3 3 5 2 4 6 7 6 4 3 2 7 6 4 7 6 1 6
28 25 23 20 18 18 16 17 22 27 23 21 6 12 14 6 3 7 13 11 2 5 6 1 4 4 5 4 1 3 2 2 2 3 1 2 6 5 9 6 4 6 4 3 2 3 5

GFSGBSN_925_spd_036.txt.gz
Wind_Speed
30 31 28 26 24 22 21 21 19 19 18 16 16 15 16 19 20 18 16 14 12 11 11 12 8 7 4 6 9 4 7 6 20 16 14 11 11 9 11 10 8 14 4 5 6 10 13
22 31 31 29 27 25 23 22 20 20 20 17 16 15 16 18 20 17 15 13 10 10 10 9 5 4 4 8 2 4 2 8 12 17 14 12 5 8 3 5 11 4 3 5 3 11 10
29 23 34 31 29 27 26 23 21 21 21 19 15 16 16 17 17 16 13 10 8 10 10 5 2 2 6 13 3 6 6 3 9 16 11 13 10 7 2 4 3 8 11 10 6 11 5
26 27 22 35 31 30 27 25 23 21 21 19 16 16 16 16 14 14 11 9 7 9 8 1 0 2 7 6 6 13 12 9 8 12 10 2 11 8 6 1 4 4 9 8 6 8 4
28 28 26 31 34 32 29 27 24 23 22 19 16 15 15 13 13 11 9 6 6 9 3 3 1 4 7 5 7 5 9 3 7 9 7 4 10 5 5 9 8 7 8 9 9 2 7
28 29 30 25 36 33 31 28 25 23 22 19 16 15 15 12 10 8 7 2 3 2 2 1 5 5 9 2 2 3 5 6 3 11 7 5 4 5 6 10 10 8 6 11 12 7 13
31 29 28 28 30 35 32 30 27 24 22 19 16 14 13 11 8 8 6 4 5 5 6 8 1 5 5 9 2 5 3 8 5 7 4 6 6 9 14 3 4 3 4 10 8 5 7
33 32 31 30 27 36 35 32 28 25 22 19 16 14 12 10 8 9 6 5 4 4 5 20 12 9 14 6 3 5 2 5 2 6 3 6 6 4 5 4 4 5 8 6 5 4 5
34 35 32 32 29 31 37 34 30 26 23 19 16 14 10 8 9 9 11 17 1 8 5 4 7 8 5 7 4 6 3 3 10 9 2 5 5 5 6 7 7 4 3 7 5 7 2
35 36 34 32 29 30 39 35 31 27 23 19 16 13 11 12 7 7 9 18 18 7 4 7 7 6 6 4 5 1 0 2 1 2 3 3 3 4 7 6 5 6 3 6 10 10 7
36 36 36 33 31 32 38 37 33 28 24 21 16 14 17 16 4 8 2 13 6 5 5 10 7 4 5 6 4 4 3 4 6 8 5 4 6 7 5 3 2 4 4 4 4 6 5
35 36 34 34 32 31 36 38 33 28 25 21 17 15 19 17 7 9 3 6 7 4 5 8 8 9 10 4 3 4 2 4 3 3 2 5 2 1 3 6 1 10 7 6 3 3 7
36 35 33 32 31 29 29 38 34 29 25 21 18 16 26 14 6 3 8 5 5 7 4 8 11 12 11 7 5 7 8 8 7 9 9 6 4 4 3 8 6 6 6 3 3 4 6
34 35 34 31 32 30 30 38 34 30 25 21 17 18 26 15 9 2 7 7 8 8 9 2 8 15 12 9 5 4 8 9 4 8 10 9 6 5 2 3 1 3 4 3 4 3 1
32 34 33 30 30 29 31 39 36 31 27 20 14 15 12 18 17 1 6 11 8 6 9 10 10 15 8 8 5 7 6 8 4 4 7 7 4 5 3 2 3 5 4 3 2 1 3
28 30 30 29 29 29 30 40 37 32 28 23 17 10 18 14 23 6 7 11 9 3 5 11 13 13 14 13 10 10 9 4 4 2 3 4 4 2 4 2 6 4 9 3 3 3 4
31 29 29 28 28 27 29 37 39 36 29 25 14 6 10 19 17 7 10 12 7 7 6 11 13 9 11 9 9 11 10 4 3 4 1 5 3 5 3 7 6 4 4 0 1 2 2
31 30 28 29 28 26 29 37 41 38 33 30 12 9 15 25 9 9 12 9 4 7 5 6 7 7 12 11 7 8 10 2 4 4 5 2 1 4 6 3 1 3 6 9 4 4 1
32 32 30 32 28 32 36 22 39 40 42 26 9 5 4 7 12 10 7 5 5 6 9 9 7 6 5 9 6 5 6 2 3 5 7 6 3 4 5 5 5 7 9 5 4 1 6
34 33 31 33 30 30 39 32 44 42 44 26 9 7 4 6 4 16 13 12 8 2 5 4 5 4 7 6 1 7 8 2 2 2 3 3 3 7 10 2 0 6 11 12 11 4 5
36 35 33 31 28 39 34 42 48 45 48 16 7 7 10 12 10 13 15 15 11 7 4 6 4 8 8 5 6 6 6 6 3 5 2 3 6 4 2 0 3 5 8 13 16 14 8
35 32 32 31 31 36 30 45 46 45 48 13 8 5 4 14 12 13 11 11 15 6 5 7 8 10 7 5 7 10 10 7 5 6 5 2 3 3 3 3 3 7 10 11 15 16 15
32 32 26 28 31 35 44 44 44 46 36 10 4 3 9 4 10 11 11 11 14 10 3 3 12 8 6 4 5 8 7 8 5 7 6 4 6 4 2 2 3 6 16 18 13 13 15
30 26 25 33 30 38 44 43 42 44 39 12 5 5 6 6 10 12 12 8 14 7 7 4 3 4 5 16 16 14 14 12 10 9 3 5 5 2 1 1 3 1 1 3 13 17 15
24 25 27 33 35 41 39 40 40 42 40 6 7 4 4 4 10 10 12 7 10 7 6 6 4 3 14 3 4 4 2 2 5 7 5 1 4 3 2 4 6 12 3 3 4 6 5
30 29 28 37 35 37 37 37 37 43 42 5 7 7 3 7 8 11 11 12 7 5 5 4 6 10 2 2 2 4 4 3 4 4 3 4 3 1 3 3 3 3 3 1 2 5 6
27 27 34 32 33 34 34 34 37 48 42 7 5 8 3 4 4 7 10 10 5 5 5 6 8 3 1 2 2 2 3 1 5 5 4 2 1 4 3 4 6 1 2 2 3 3 6
31 30 28 29 30 30 32 33 37 50 46 7 7 6 2 3 4 1 2 5 5 6 6 8 6 2 2 2 2 3 2 4 3 2 4 5 6 3 3 3 4 5 6 3 4 4 5
28 28 28 27 27 29 31 33 39 48 42 9 6 12 14 6 4 6 10 7 3 3 6 11 1 6 5 4 1 3 2 1 1 3 3 3 3 1 6 1 3 6 5 3 4 8 7

GFSGBSN_925_spd_039.txt.gz
Wind_Speed
27 23 20 29 25 24 23 22 20 18 17 16 16 15 15 16 17 19 17 16 14 13 11 12 14 11 7 7 12 2 8 5 17 14 15 11 11 11 11 12 12 15 4 3 2 6 7
21 25 24 21 30 25 24 24 21 20 18 17 17 15 16 16 17 18 17 15 12 11 10 12 11 6 7 11 2 3 2 10 13 18 15 12 9 10 10 5 11 11 13 3 6 10 15
22 24 25 23 25 30 26 25 23 22 19 18 18 16 15 16 17 16 15 13 11 10 10 10 7 5 8 16 2 4 8 3 10 15 13 12 12 6 4 8 3 4 7 9 6 11 6
23 25 25 24 23 28 28 26 24 23 21 19 18 16 15 15 16 15 13 11 10 10 10 6 3 6 8 6 12 14 11 12 10 12 14 3 8 11 12 5 6 8 6 12 7 13 6
26 24 26 28 24 23 30 28 26 24 22 20 18 17 15 15 15 13 11 9 9 8 7 1 2 6 7 2 12 10 12 9 5 9 8 3 7 9 7 9 8 10 8 11 11 12 11
27 28 25 25 27 25 26 30 27 25 22 20 18 17 15 15 14 12 8 4 6 1 1 3 10 8 9 9 7 5 6 7 6 9 9 7 7 8 9 10 10 13 14 14 11 11 10
29 30 29 26 25 25 25 29 29 26 23 20 18 16 14 15 13 10 4 2 5 6 11 11 4 12 1 5 8 11 9 10 6 10 12 12 7 12 15 15 9 4 7 11 14 11 13
29 27 27 29 28 28 24 26 30 26 24 21 17 16 14 13 11 8 8 8 8 6 7 21 19 13 16 9 6 10 7 9 7 13 5 7 9 7 10 3 7 6 6 7 10 11 9
32 30 29 29 29 28 27 24 29 28 25 22 18 15 13 11 7 9 14 16 3 11 6 11 16 14 13 10 11 14 9 9 15 17 9 1 6 5 6 7 6 7 2 8 7 11 14
34 32 32 31 29 29 30 24 29 29 25 22 18 15 12 7 6 11 13 19 18 8 5 12 11 8 9 8 10 8 7 6 9 13 10 20 17 6 8 7 6 10 2 1 4 12 13
37 34 33 33 31 30 31 26 26 30 26 23 19 17 15 16 8 9 4 9 6 4 5 15 16 6 8 12 4 14 6 9 12 15 10 3 9 9 8 4 5 8 3 4 6 12 7
38 37 35 34 34 33 32 29 25 31 27 24 21 18 13 12 13 11 2 7 6 5 9 9 13 13 13 13 8 11 13 8 5 4 12 2 7 3 5 3 4 4 4 6 7 10 8
36 38 36 35 34 33 32 31 27 33 28 25 23 20 21 14 7 9 10 11 6 8 6 12 18 18 17 10 11 11 16 15 12 11 12 12 10 4 5 6 3 8 9 8 5 4 8
39 39 38 37 35 33 31 32 26 32 31 26 23 20 20 20 15 3 13 9 11 13 15 7 16 16 16 13 12 12 15 16 19 14 10 12 8 12 7 9 5 9 11 5 6 7 7
40 38 39 37 35 33 31 29 28 30 32 27 22 14 14 23 16 5 10 14 11 10 14 9 12 16 16 14 8 13 15 17 14 15 6 15 5 7 2 3 5 6 7 5 4 1 5
40 37 40 38 36 34 32 30 28 32 34 31 21 12 21 19 21 10 10 19 19 9 7 12 16 17 17 14 12 14 14 15 9 5 7 4 3 4 5 5 6 8 3 3 4 3 7
35 38 39 39 35 33 32 28 30 34 37 33 22 7 16 25 23 6 13 20 18 10 10 12 17 15 15 14 16 15 13 7 8 10 8 7 9 7 5 10 11 7 8 6 4 3 4
36 42 38 38 34 33 31 27 31 36 40 36 20 11 28 37 10 8 16 22 20 12 11 10 8 13 14 14 12 12 16 12 11 7 11 4 4 7 10 5 5 10 8 9 5 6 4
36 37 30 32 30 31 30 27 28 42 48 34 13 7 19 27 13 14 20 21 21 15 13 13 12 12 12 11 11 12 11 6 4 7 6 6 7 9 7 6 7 8 9 8 8 2 9
36 35 30 29 28 28 29 27 28 48 49 34 11 10 4 9 15 20 24 21 19 12 13 15 15 12 10 12 11 10 9 4 5 4 3 1 11 9 10 9 5 12 12 11 12 8 10
35 37 33 28 30 29 30 27 38 39 49 28 9 13 13 16 19 14 23 18 22 13 10 12 12 15 14 11 14 8 10 7 6 5 5 4 10 12 14 5 7 9 9 10 16 17 15
40 35 32 31 31 32 33 30 41 33 48 12 6 14 16 19 21 19 21 23 24 19 16 16 15 17 15 10 11 11 12 10 8 9 8 5 6 3 6 9 9 12 14 14 15 16 17
35 35 35 33 32 33 33 31 42 48 37 11 15 15 15 19 24 17 17 22 24 16 3 9 17 16 12 3 7 9 6 2 4 8 11 6 4 4 5 3 5 6 15 18 18 17 14
37 37 33 33 34 37 32 34 46 45 52 28 18 9 14 15 19 20 22 22 19 16 10 3 8 10 6 13 14 12 11 9 7 5 3 5 7 2 1 1 1 3 1 4 7 12 14
39 35 34 33 35 31 40 43 41 45 51 34 18 6 6 6 19 22 24 18 12 10 13 11 6 5 15 8 4 5 2 3 3 3 3 4 5 2 3 6 9 12 5 1 1 5 10
34 34 37 37 29 37 37 36 36 47 47 43 20 14 8 8 15 21 17 18 11 9 7 5 11 7 3 2 2 5 5 6 5 6 3 3 1 4 3 3 4 4 4 1 1 4 8
33 36 30 32 38 47 40 48 50 45 43 43 12 12 9 8 15 18 15 13 13 11 6 6 7 4 3 2 2 3 4 2 6 5 4 3 1 6 5 3 6 5 2 2 4 4 9
34 36 40 36 38 38 38 37 38 41 38 40 11 10 4 5 7 1 3 14 5 10 6 9 7 2 3 3 3 3 2 4 2 3 6 6 7 3 3 3 5 5 6 1 5 6 7
33 28 30 32 33 34 32 35 37 37 38 48 9 2 13 6 6 9 10 8 4 6 4 12 2 11 6 4 1 2 2 1 1 3 3 4 4 1 6 1 5 3 4 3 6 8 8

GFSGBSN_925_spd_042.txt.gz
Wind_Speed
17 18 22 18 18 23 22 21 20 19 18 17 16 16 16 17 17 18 21 22 21 18 15 15 14 13 6 7 11 5 5 3 11 12 13 13 10 11 13 13 12 14 17 7 7 5 8
19 17 18 20 20 18 23 23 21 20 18 17 16 16 17 17 17 18 19 21 20 18 16 13 12 8 3 11 5 3 2 5 10 13 13 14 9 10 11 15 11 9 14 4 3 3 2
18 18 16 20 22 21 18 23 23 21 19 18 16 16 17 17 18 18 19 19 19 17 14 12 9 4 9 18 10 5 6 8 11 14 14 11 11 9 7 11 11 5 7 4 2 3 3
22 21 19 18 22 20 21 19 23 22 20 19 17 16 16 17 17 18 18 17 17 15 12 11 5 3 8 10 12 16 13 12 12 13 14 12 7 9 10 13 7 8 6 5 6 11 9
23 22 23 20 20 22 20 19 21 24 21 19 18 16 16 16 17 18 17 15 14 13 11 5 3 6 9 3 13 15 13 14 6 8 10 5 6 10 11 10 9 1 6 9 15 13 6
26 24 24 24 22 21 20 21 20 23 22 20 18 16 15 16 16 16 15 12 12 11 6 8 11 9 10 10 13 15 10 7 6 7 6 8 6 7 9 8 5 8 14 16 12 13 11
28 27 26 27 27 23 20 19 21 22 23 20 18 15 15 15 15 14 10 7 5 5 12 10 10 9 4 3 4 8 12 10 11 9 11 11 6 8 6 5 13 11 15 15 11 13 8
29 28 27 26 24 26 24 22 21 21 22 20 18 15 14 14 14 11 7 6 4 9 9 20 19 18 17 9 8 13 15 10 9 9 11 10 5 6 14 17 19 16 1 10 13 9 10
30 30 30 27 25 23 26 23 21 19 21 21 18 15 13 12 11 10 15 19 15 16 7 15 22 18 15 14 14 14 11 14 12 4 9 15 3 13 12 16 12 8 12 7 9 7 11
31 31 31 31 29 25 25 25 24 19 22 22 17 16 13 9 6 12 12 14 19 10 5 10 16 14 15 7 14 22 22 15 5 10 9 4 10 16 17 11 5 2 11 8 16 15 7
36 34 32 32 31 28 26 25 25 21 22 23 18 17 15 15 10 11 11 9 7 5 4 11 16 9 13 15 7 18 6 12 6 12 4 4 14 18 20 7 5 3 9 16 16 6 4
38 37 35 33 33 31 29 26 26 22 21 23 20 19 14 10 12 17 10 2 4 5 7 6 11 13 18 14 17 9 14 12 10 1 6 10 16 20 2 2 2 13 10 15 9 9 7
37 36 33 34 34 34 31 29 27 24 21 24 23 22 22 11 8 14 9 5 5 7 10 11 18 16 17 15 16 12 15 17 12 8 8 8 16 4 4 6 6 8 10 3 7 7 4
43 35 36 33 34 35 34 30 29 26 23 24 25 22 24 21 16 8 10 5 11 11 21 3 15 15 20 17 15 14 13 16 18 18 9 11 9 13 8 7 4 15 7 3 2 5 7
42 39 38 35 35 35 35 32 30 27 24 24 25 20 16 22 21 11 8 11 11 13 21 8 13 14 18 18 10 14 15 16 18 18 11 6 3 13 10 3 10 9 4 4 7 3 2
43 41 41 35 36 36 36 34 32 27 24 29 23 16 21 23 22 11 8 18 15 24 12 12 15 15 17 18 14 11 14 13 17 18 12 6 3 14 16 6 4 5 6 4 2 2 4
44 44 38 35 37 36 38 36 33 29 25 28 19 7 13 26 23 7 15 18 22 21 18 10 14 15 19 14 15 13 10 12 18 9 7 7 11 8 6 8 8 6 7 5 6 4 1
44 41 38 36 37 36 40 38 34 31 27 35 7 7 31 39 11 11 15 22 22 17 15 12 10 16 15 14 13 14 14 13 7 8 9 13 5 4 12 3 5 9 11 9 3 6 2
43 37 36 35 46 33 42 41 37 32 36 26 5 7 33 35 12 14 18 25 26 23 18 14 15 13 12 13 10 14 10 6 8 8 3 4 4 5 9 6 8 8 12 9 8 2 4
38 35 34 32 39 34 45 40 40 33 38 25 5 9 5 11 12 21 23 22 26 24 20 14 15 14 12 14 9 9 9 3 3 1 3 3 5 9 6 11 5 6 11 11 10 3 4
37 35 36 30 36 34 44 43 39 34 38 27 4 9 7 12 18 19 21 21 25 23 20 17 16 17 12 8 11 11 11 7 4 3 2 3 8 12 14 14 7 9 12 8 11 10 10
38 36 34 33 33 32 39 40 37 32 34 24 7 6 12 7 19 21 20 27 27 24 20 20 16 18 13 11 12 10 11 8 7 7 8 5 6 4 8 9 13 11 15 15 15 15 14
33 34 37 33 31 33 36 35 35 30 34 8 17 11 10 14 21 19 21 25 25 19 19 19 17 14 16 7 5 10 2 11 7 10 9 7 3 2 2 6 7 5 10 16 16 15 13
36 36 38 38 35 35 35 32 34 28 39 9 24 7 6 13 18 24 26 24 26 22 9 14 13 18 8 13 14 13 12 8 7 4 7 6 5 3 1 1 1 8 4 5 5 8 9
40 38 38 36 34 33 32 31 32 25 42 33 15 5 3 9 19 25 25 25 26 13 9 10 2 10 15 9 4 4 2 3 1 3 3 4 4 2 3 4 7 12 1 3 2 5 11
39 37 38 34 34 32 32 33 33 28 40 41 30 25 4 8 19 32 25 26 11 7 7 8 11 6 3 3 2 4 4 5 7 6 0 1 5 3 3 2 4 1 5 3 2 2 8
40 38 37 36 35 33 33 35 33 30 45 38 28 32 6 9 16 28 18 15 11 7 1 7 7 3 3 3 2 2 3 3 6 6 4 2 0 4 3 1 5 6 5 1 2 3 5
39 37 35 35 34 33 34 30 31 42 45 36 34 33 20 9 14 15 9 15 14 10 10 10 6 2 3 3 3 2 2 3 2 7 7 6 6 3 2 2 5 6 5 2 4 5 7
34 34 34 34 34 36 38 36 37 41 38 37 24 37 42 9 7 18 13 14 10 12 7 8 6 9 5 4 2 3 2 2 2 2 6 4 4 4 7 3 6 4 5 5 6 5 7

GFSGBSN_925_spd_045.txt.gz
Wind_Speed
16 17 17 18 18 18 18 20 19 16 15 15 15 15 15 16 17 17 19 20 22 23 21 18 16 16 7 3 10 9 6 3 9 9 9 8 9 6 7 5 7 7 8 4 9 10 6
18 18 18 18 18 18 19 19 20 18 16 15 14 14 15 16 17 17 19 20 21 21 19 16 13 12 2 6 9 11 2 3 6 10 11 15 9 8 6 5 5 7 9 3 5 7 5
19 19 18 17 17 18 19 19 18 19 17 16 15 14 15 16 17 18 19 20 20 19 16 14 12 6 5 16 11 10 7 4 13 13 7 23 19 4 7 9 10 9 6 5 4 4 4
23 21 21 19 18 17 19 20 18 17 18 17 16 14 15 16 17 18 19 19 19 17 14 12 10 2 7 16 16 15 8 15 15 22 17 17 13 5 3 7 7 7 3 2 2 8 4
26 25 24 21 20 18 17 20 19 17 18 18 16 15 15 15 16 18 18 19 18 15 12 9 5 4 9 18 11 18 15 16 20 18 11 13 4 2 6 3 5 4 3 3 2 1 8
29 28 27 24 22 21 18 17 19 18 16 18 17 15 15 15 15 17 18 17 15 15 6 3 9 5 9 5 12 18 20 20 5 4 0 3 2 2 3 2 3 1 3 3 6 7 12
31 30 27 27 25 23 22 19 17 17 16 19 17 15 14 14 14 16 16 7 2 0 4 9 6 6 13 18 2 12 12 16 3 5 2 5 4 5 8 6 4 5 6 8 9 8 6
32 31 30 28 27 24 26 22 19 17 17 19 17 15 14 13 12 14 10 4 7 8 8 18 20 19 25 19 5 9 16 6 6 5 1 6 7 8 7 8 7 6 11 10 13 5 4
35 33 31 29 28 25 22 22 23 19 17 16 17 14 13 11 11 14 14 21 20 15 4 9 16 8 7 11 7 11 6 7 6 4 8 6 11 16 3 9 13 3 6 2 2 5 5
38 36 34 30 29 28 25 24 21 21 17 15 18 14 13 9 7 9 7 15 3 5 3 6 8 7 7 7 7 16 16 9 3 10 13 5 6 10 8 13 6 4 5 5 3 5 2
38 38 36 34 31 30 28 25 23 22 19 16 16 14 16 13 9 4 10 12 4 5 4 5 10 8 10 10 2 6 22 8 6 6 5 6 1 2 5 6 6 6 7 10 8 7 10
42 38 36 36 34 33 30 27 25 23 20 17 19 16 15 14 13 19 13 16 8 1 7 4 8 7 8 10 9 4 6 2 2 2 3 6 6 1 2 8 11 3 2 4 4 1 1
43 36 38 32 34 36 34 30 27 25 21 18 19 19 22 12 5 7 11 5 1 4 7 7 12 11 10 6 9 8 6 6 5 4 3 4 5 9 8 6 3 7 3 3 5 6 5
45 41 36 37 35 36 36 33 29 26 22 19 18 20 25 26 19 11 6 1 9 12 11 2 10 9 11 7 10 11 5 6 8 7 3 5 1 5 3 3 4 3 3 4 4 2 6
43 40 35 32 32 35 37 35 33 26 25 20 16 20 13 29 24 9 1 9 6 7 7 4 14 11 9 12 7 9 7 6 11 12 7 5 3 8 10 11 3 2 4 4 6 2 2
46 40 37 35 37 34 37 35 34 30 26 22 15 10 10 26 17 8 5 14 6 15 11 7 7 8 8 12 10 9 8 8 6 13 7 2 5 2 3 7 7 7 7 1 3 3 3
45 40 39 36 35 36 36 37 36 32 27 24 16 4 14 22 17 4 14 12 14 21 13 6 5 7 8 8 9 6 6 6 9 4 9 6 4 2 11 4 8 1 3 2 3 5 4
45 40 38 37 38 40 38 40 38 36 30 29 9 8 26 35 7 5 15 10 8 20 13 13 6 3 7 9 7 8 7 9 8 9 9 8 4 4 9 18 15 6 6 6 5 4 3
43 38 34 32 37 39 41 42 41 39 39 28 5 6 25 35 11 13 9 15 21 15 18 6 6 3 2 5 6 6 6 4 3 5 6 3 2 4 1 9 8 4 6 4 3 4 4
41 37 37 37 38 42 40 41 43 43 43 28 5 7 6 10 8 19 17 15 23 12 21 19 13 6 5 5 4 7 3 2 5 4 2 5 0 5 6 6 3 3 4 5 4 4 4
38 38 35 38 43 44 42 36 44 46 47 29 4 9 9 12 18 14 18 14 21 18 17 11 11 9 7 5 4 5 5 3 4 1 3 4 3 1 4 5 5 2 1 4 6 6 6
41 39 39 34 41 41 39 47 34 48 47 30 4 6 7 2 16 17 19 21 26 21 15 20 16 9 9 6 7 6 8 5 5 1 5 2 2 3 1 5 7 4 7 6 7 6 3
41 39 39 37 39 37 33 43 34 51 47 9 10 7 10 6 17 16 22 23 24 16 13 21 10 6 8 8 4 2 6 9 9 9 7 6 4 3 2 4 6 6 7 6 6 4 3
37 41 41 40 38 33 32 42 42 50 51 12 16 4 4 11 13 22 22 19 24 25 16 11 12 8 6 7 7 8 11 10 10 7 4 6 6 3 3 3 2 9 2 5 7 7 8
40 40 38 38 38 33 37 42 47 48 48 28 5 2 2 5 15 16 24 26 19 18 15 9 3 6 9 7 4 4 5 6 1 3 3 4 5 2 4 4 4 7 2 2 4 4 6
37 35 35 37 35 35 36 41 45 47 39 34 34 11 2 3 12 21 22 19 14 10 3 3 4 8 3 3 4 5 5 6 5 3 8 7 5 5 2 4 6 6 3 4 3 1 5
35 34 31 35 36 31 31 36 38 41 35 33 18 20 4 3 5 14 21 19 5 5 5 3 1 7 3 3 2 3 3 8 5 9 4 3 3 5 3 2 7 5 5 0 6 5 4
35 33 32 35 37 35 33 34 34 33 32 30 18 19 7 3 9 4 9 7 5 5 6 5 4 2 3 2 4 2 3 4 4 8 8 6 6 3 3 2 5 6 4 6 5 4 7
36 35 34 37 34 34 33 32 30 37 39 27 6 20 18 6 5 21 11 13 13 11 9 0 7 8 8 4 3 4 2 2 3 2 2 2 6 6 7 6 6 7 12 6 8 7 6

GFSGBSN_925_spd_051.txt.gz
Wind_Speed
23 23 21 22 23 23 23 21 20 19 21 19 18 16 15 15 16 16 16 17 17 18 20 20 19 17 7 3 9 5 7 2 11 9 4 4 3 2 3 4 4 3 5 6 4 9 7
23 25 25 24 24 22 23 23 21 20 19 20 21 18 15 16 16 17 17 17 17 18 19 18 16 13 3 5 4 5 3 1 3 7 4 5 5 4 3 4 1 4 4 4 5 6 6
27 28 27 26 25 23 21 21 22 21 19 20 21 20 17 16 16 17 17 18 17 18 18 17 13 7 1 15 3 6 4 10 11 9 3 9 3 3 2 6 3 4 4 3 2 4 5
31 28 28 29 27 25 25 21 18 20 20 19 19 21 19 16 16 17 18 18 18 19 18 13 8 2 7 7 7 16 15 14 11 13 17 10 6 4 3 3 7 4 3 3 4 5 2
34 31 30 29 29 27 25 23 20 18 21 19 18 21 20 17 17 17 18 19 20 20 13 8 2 1 9 11 8 10 16 7 4 10 15 11 4 1 5 3 5 5 2 2 3 7 3
37 35 33 31 30 29 27 25 22 20 18 20 19 19 21 18 16 17 18 18 18 9 1 2 1 3 7 3 6 13 10 10 3 3 2 3 4 3 3 4 2 4 3 1 3 4 4
40 37 36 35 33 30 29 27 24 22 19 18 19 19 20 18 15 15 16 7 3 1 4 8 5 4 4 11 8 2 5 9 3 5 3 2 3 2 5 5 6 3 5 4 3 4 3
41 43 40 38 36 33 31 29 26 23 21 18 17 17 17 15 14 13 11 2 3 2 8 13 17 11 20 3 4 5 7 5 5 5 2 4 3 6 5 2 4 0 4 6 6 5 5
42 42 44 40 39 36 33 31 27 25 24 20 17 16 14 14 14 12 7 9 13 9 4 7 7 6 6 12 7 6 6 5 4 6 6 5 4 2 3 4 1 1 2 5 6 5 2
44 42 43 41 40 39 36 33 30 27 24 23 19 16 16 14 7 7 5 3 16 13 2 6 5 7 7 8 4 12 7 6 2 10 6 4 2 3 2 2 4 3 3 8 3 2 4
46 43 42 45 43 40 39 35 33 27 24 20 21 17 17 20 2 4 5 12 4 1 3 3 4 7 7 11 2 6 8 3 7 6 5 8 5 5 4 5 4 6 3 3 3 2 2
50 46 46 40 44 43 42 38 33 29 25 22 19 18 17 21 18 13 7 12 5 4 7 3 7 7 6 3 2 1 5 3 4 5 3 5 1 2 5 1 4 2 1 4 3 1 2
52 50 45 47 39 43 40 40 36 31 27 24 21 19 20 18 4 7 9 1 3 4 4 4 5 6 5 6 3 1 5 6 6 5 4 2 1 3 2 2 3 6 5 3 4 4 5
54 52 48 45 51 44 44 41 38 31 29 26 21 19 21 21 14 5 2 3 8 6 6 4 3 5 8 6 5 5 5 5 3 4 3 5 4 4 1 3 4 2 5 4 4 2 4
55 53 51 46 45 45 44 44 40 37 28 26 20 20 16 20 21 10 1 11 7 6 4 3 3 4 4 4 6 5 8 7 9 8 7 4 3 3 3 1 4 1 0 2 6 3 3
57 54 53 49 44 51 43 44 40 40 32 28 19 9 18 18 26 7 4 18 6 5 4 4 8 6 8 8 7 7 8 5 5 9 7 7 2 2 4 3 6 4 5 1 2 3 2
59 56 54 50 46 50 43 45 43 41 37 30 15 4 14 22 20 4 13 11 11 13 4 3 2 2 7 7 9 6 8 4 7 6 5 5 5 2 1 6 7 2 1 1 4 4 4
61 57 55 51 47 47 46 48 42 43 42 33 10 5 25 34 7 6 14 7 6 15 1 3 3 4 4 7 7 8 9 8 8 10 9 7 6 4 9 2 2 2 5 5 4 4 1
62 58 55 52 48 46 48 52 47 39 43 28 8 5 24 31 13 13 8 17 7 6 6 6 4 1 4 2 4 7 8 4 7 8 10 8 1 3 6 5 4 4 5 4 4 4 6
64 59 56 52 49 48 50 52 48 48 44 25 5 6 5 10 13 20 20 13 23 14 11 3 3 3 2 3 6 6 7 4 7 8 5 9 5 8 8 8 4 4 5 5 6 3 4
63 59 56 51 47 50 53 53 55 55 51 28 4 7 7 13 20 17 20 12 16 16 10 7 5 9 3 3 3 4 2 3 1 6 5 5 6 5 6 4 5 4 3 7 5 5 6
63 59 55 51 49 49 52 51 54 56 46 22 8 3 4 2 17 28 18 22 25 22 8 10 15 3 10 9 7 3 4 3 6 2 5 1 3 3 2 3 2 4 7 6 6 4 6
59 58 54 51 52 55 51 50 47 52 49 6 13 3 2 7 17 19 29 20 21 17 14 15 15 16 11 13 8 10 8 3 6 10 6 6 6 4 4 2 3 5 8 7 6 4 5
58 55 52 52 54 57 53 48 45 48 60 7 18 2 2 4 15 23 19 23 19 20 20 13 20 9 6 3 1 4 6 8 7 5 4 7 6 3 3 2 2 6 4 5 5 2 4
54 52 51 53 56 55 52 50 45 49 53 37 25 3 2 3 9 11 14 21 15 14 19 20 16 9 4 2 2 4 5 4 3 6 5 2 6 3 5 4 5 1 3 7 6 3 2
50 47 53 53 53 49 48 48 47 41 46 46 21 11 1 3 8 7 18 14 16 13 10 18 7 5 4 3 3 7 5 5 4 3 5 6 6 5 3 5 7 8 4 5 5 2 6
45 51 52 51 48 44 43 41 40 39 42 40 13 11 4 2 3 7 12 8 11 14 6 3 9 5 2 3 2 4 4 5 7 10 5 3 3 5 3 3 7 7 5 5 6 8 8
45 44 43 42 43 43 42 40 41 40 45 43 11 18 4 1 5 5 6 4 10 13 10 4 4 2 3 4 3 4 3 5 4 6 8 7 7 4 3 3 6 5 4 8 6 3 6
39 39 37 37 37 37 38 41 42 34 38 40 8 25 9 1 3 10 15 20 11 2 6 4 2 6 6 3 2 2 2 1 4 3 1 2 6 6 8 6 2 3 4 1 3 9 5